Time,TemperatureF,DewpointF,PressureIn,WindDirection,WindDirectionDegrees,WindSpeedMPH,WindSpeedGustMPH,Humidity,HourlyPrecipIn,Conditions,Clouds,dailyrainin,SoftwareType,DateUTC
2013-05-04 00:01:00,40.6,40.0,30.39,NNW,337,0.0,2.1,98,0.00,,,0.00,Rainwise IP-100,2013-05-04 04:01:00,
2013-05-04 00:06:00,40.5,40.0,30.39,NNW,337,0.0,1.4,98,0.00,,,0.00,Rainwise IP-100,2013-05-04 04:06:00,
2013-05-04 00:11:00,40.2,40.0,30.39,NNW,337,0.0,0.0,98,0.00,,,0.00,Rainwise IP-100,2013-05-04 04:11:00,
2013-05-04 00:16:00,40.0,40.0,30.39,NNW,337,0.0,0.0,98,0.00,,,0.00,Rainwise IP-100,2013-05-04 04:16:00,
2013-05-04 00:21:00,40.2,40.0,30.40,NNW,337,0.0,0.0,98,0.00,,,0.00,Rainwise IP-100,2013-05-04 04:21:00,
2013-05-04 00:26:00,40.2,40.0,30.39,NNW,337,0.0,0.0,98,0.00,,,0.00,Rainwise IP-100,2013-05-04 04:26:00,
2013-05-04 00:31:00,40.0,40.0,30.39,NNW,337,0.0,0.0,98,0.00,,,0.00,Rainwise IP-100,2013-05-04 04:31:00,
2013-05-04 00:36:00,39.7,40.0,30.40,NNW,337,0.0,0.0,98,0.00,,,0.00,Rainwise IP-100,2013-05-04 04:36:00,
2013-05-04 00:41:00,39.5,40.0,30.39,NNW,337,0.0,0.0,98,0.00,,,0.00,Rainwise IP-100,2013-05-04 04:41:00,
2013-05-04 00:46:00,39.3,39.0,30.39,NNW,337,1.4,1.6,98,0.00,,,0.00,Rainwise IP-100,2013-05-04 04:46:00,
2013-05-04 00:51:00,39.1,39.0,30.39,NNW,337,0.0,1.6,99,0.00,,,0.00,Rainwise IP-100,2013-05-04 04:51:00,
2013-05-04 00:56:00,38.9,39.0,30.38,NNW,337,0.0,1.2,99,0.00,,,0.00,Rainwise IP-100,2013-05-04 04:56:00,
2013-05-04 00:59:00,38.8,39.0,30.38,NNW,337,0.0,1.2,99,0.00,,,0.00,Rainwise IP-100,2013-05-04 04:59:00,
2013-05-04 01:00:00,38.8,39.0,30.38,NNW,337,0.0,0.0,99,0.00,,,0.00,Rainwise IP-100,2013-05-04 05:00:00,
2013-05-04 01:05:00,38.7,39.0,30.38,NNW,337,0.0,0.0,99,0.00,,,0.00,Rainwise IP-100,2013-05-04 05:05:00,
2013-05-04 01:10:00,38.7,39.0,30.38,NNW,337,0.0,1.2,99,0.00,,,0.00,Rainwise IP-100,2013-05-04 05:10:00,
2013-05-04 01:15:00,38.7,39.0,30.38,NNW,337,0.0,0.0,99,0.00,,,0.00,Rainwise IP-100,2013-05-04 05:15:00,
2013-05-04 01:20:00,38.6,39.0,30.37,NNW,337,0.0,0.0,99,0.00,,,0.00,Rainwise IP-100,2013-05-04 05:20:00,
2013-05-04 01:25:00,38.7,39.0,30.37,NNW,337,0.0,1.2,99,0.00,,,0.00,Rainwise IP-100,2013-05-04 05:25:00,
2013-05-04 01:30:00,38.8,39.0,30.37,NNW,337,0.0,1.4,99,0.00,,,0.00,Rainwise IP-100,2013-05-04 05:30:00,
2013-05-04 01:35:00,39.2,39.0,30.37,NNW,337,0.0,0.0,99,0.00,,,0.00,Rainwise IP-100,2013-05-04 05:35:00,
2013-05-04 01:40:00,39.7,40.0,30.37,NNW,337,1.2,2.3,100,0.00,,,0.00,Rainwise IP-100,2013-05-04 05:40:00,
2013-05-04 01:45:00,39.8,40.0,30.37,NNW,337,0.0,2.6,100,0.00,,,0.00,Rainwise IP-100,2013-05-04 05:45:00,
2013-05-04 01:50:00,39.9,40.0,30.37,NNW,337,1.6,2.1,100,0.00,,,0.00,Rainwise IP-100,2013-05-04 05:50:00,
2013-05-04 01:55:00,40.1,40.0,30.37,NNW,337,0.0,2.1,100,0.00,,,0.00,Rainwise IP-100,2013-05-04 05:55:00,
2013-05-04 02:00:00,40.0,40.0,30.37,NNW,337,0.0,2.3,100,0.00,,,0.00,Rainwise IP-100,2013-05-04 06:00:00,
2013-05-04 02:05:00,40.1,40.0,30.37,NNW,337,0.0,1.9,100,0.00,,,0.00,Rainwise IP-100,2013-05-04 06:05:00,
2013-05-04 02:10:00,40.5,41.0,30.37,NNW,337,0.0,2.3,100,0.00,,,0.00,Rainwise IP-100,2013-05-04 06:10:00,
2013-05-04 02:15:00,40.7,41.0,30.36,NNW,337,0.0,1.4,100,0.00,,,0.00,Rainwise IP-100,2013-05-04 06:15:00,
2013-05-04 02:20:00,40.7,41.0,30.36,NNW,337,1.9,2.3,100,0.00,,,0.00,Rainwise IP-100,2013-05-04 06:20:00,
2013-05-04 02:25:00,41.0,41.0,30.36,NE,45,0.0,5.4,100,0.00,,,0.00,Rainwise IP-100,2013-05-04 06:25:00,
2013-05-04 02:30:00,41.6,42.0,30.36,NNW,337,1.4,3.7,100,0.00,,,0.00,Rainwise IP-100,2013-05-04 06:30:00,
2013-05-04 02:35:00,42.2,42.0,30.36,NNW,337,1.4,3.7,100,0.00,,,0.00,Rainwise IP-100,2013-05-04 06:35:00,
2013-05-04 02:40:00,42.4,42.0,30.36,NNW,337,3.0,5.4,100,0.00,,,0.00,Rainwise IP-100,2013-05-04 06:40:00,
2013-05-04 02:45:00,42.5,43.0,30.36,NNE,22,3.5,5.4,100,0.00,,,0.00,Rainwise IP-100,2013-05-04 06:45:00,
2013-05-04 02:50:00,42.7,43.0,30.36,NNW,337,1.9,6.5,100,0.00,,,0.00,Rainwise IP-100,2013-05-04 06:50:00,
2013-05-04 02:55:00,42.8,43.0,30.36,NNE,22,1.4,4.9,100,0.00,,,0.00,Rainwise IP-100,2013-05-04 06:55:00,
2013-05-04 03:00:00,42.9,43.0,30.36,NNW,337,1.6,7.5,100,0.00,,,0.00,Rainwise IP-100,2013-05-04 07:00:00,
2013-05-04 03:05:00,43.1,43.0,30.35,North,360,3.5,5.6,100,0.00,,,0.00,Rainwise IP-100,2013-05-04 07:05:00,
2013-05-04 03:10:00,43.1,43.0,30.36,ENE,67,2.1,7.0,100,0.00,,,0.00,Rainwise IP-100,2013-05-04 07:10:00,
2013-05-04 03:15:00,43.1,43.0,30.36,NNW,337,5.4,5.4,100,0.00,,,0.00,Rainwise IP-100,2013-05-04 07:15:00,
2013-05-04 03:20:00,43.2,43.0,30.36,NW,315,6.5,8.4,100,0.00,,,0.00,Rainwise IP-100,2013-05-04 07:20:00,
2013-05-04 03:25:00,43.4,43.0,30.36,NW,315,5.1,7.7,100,0.00,,,0.00,Rainwise IP-100,2013-05-04 07:25:00,
2013-05-04 03:30:00,43.5,44.0,30.35,NNW,337,1.2,7.2,100,0.00,,,0.00,Rainwise IP-100,2013-05-04 07:30:00,
2013-05-04 03:35:00,43.4,43.0,30.36,NNW,337,1.6,5.1,100,0.00,,,0.00,Rainwise IP-100,2013-05-04 07:35:00,
2013-05-04 03:40:00,43.3,43.0,30.35,NNW,337,3.3,6.5,100,0.00,,,0.00,Rainwise IP-100,2013-05-04 07:40:00,
2013-05-04 03:45:00,43.2,43.0,30.35,NNE,22,4.7,4.7,100,0.00,,,0.00,Rainwise IP-100,2013-05-04 07:45:00,
2013-05-04 03:50:00,43.1,43.0,30.35,NNE,22,4.0,7.2,100,0.00,,,0.00,Rainwise IP-100,2013-05-04 07:50:00,
2013-05-04 03:55:00,43.1,43.0,30.35,NNW,337,1.6,6.8,100,0.00,,,0.00,Rainwise IP-100,2013-05-04 07:55:00,
2013-05-04 04:00:00,43.1,43.0,30.36,NNW,337,3.5,7.5,100,0.00,,,0.00,Rainwise IP-100,2013-05-04 08:00:00,
2013-05-04 04:05:00,43.2,43.0,30.35,ENE,67,3.0,7.0,100,0.00,,,0.00,Rainwise IP-100,2013-05-04 08:05:00,
2013-05-04 04:10:00,43.3,43.0,30.35,NNW,337,0.0,8.4,100,0.00,,,0.00,Rainwise IP-100,2013-05-04 08:10:00,
2013-05-04 04:15:00,43.3,43.0,30.35,NNW,337,4.9,6.5,100,0.00,,,0.00,Rainwise IP-100,2013-05-04 08:15:00,
2013-05-04 04:20:00,43.4,43.0,30.35,ENE,67,2.6,8.4,100,0.00,,,0.00,Rainwise IP-100,2013-05-04 08:20:00,
2013-05-04 04:25:00,43.6,44.0,30.36,NW,315,0.0,7.9,100,0.00,,,0.00,Rainwise IP-100,2013-05-04 08:25:00,
2013-05-04 04:30:00,43.6,44.0,30.36,ENE,67,1.2,8.4,100,0.00,,,0.00,Rainwise IP-100,2013-05-04 08:30:00,
2013-05-04 04:35:00,43.7,44.0,30.35,NNW,337,2.3,5.8,100,0.00,,,0.00,Rainwise IP-100,2013-05-04 08:35:00,
2013-05-04 04:40:00,43.7,44.0,30.35,NNW,337,3.0,5.6,100,0.00,,,0.00,Rainwise IP-100,2013-05-04 08:40:00,
2013-05-04 04:45:00,43.7,44.0,30.35,NE,45,5.8,6.8,100,0.00,,,0.00,Rainwise IP-100,2013-05-04 08:45:00,
2013-05-04 04:50:00,43.7,44.0,30.35,NNW,337,0.0,8.4,100,0.00,,,0.00,Rainwise IP-100,2013-05-04 08:50:00,
2013-05-04 04:55:00,43.7,44.0,30.35,North,360,2.8,4.7,99,0.00,,,0.00,Rainwise IP-100,2013-05-04 08:55:00,
2013-05-04 05:00:00,43.7,44.0,30.35,ENE,67,4.4,6.3,99,0.00,,,0.00,Rainwise IP-100,2013-05-04 09:00:00,
2013-05-04 05:05:00,43.6,44.0,30.35,NE,45,1.9,7.0,99,0.00,,,0.00,Rainwise IP-100,2013-05-04 09:05:00,
2013-05-04 05:10:00,43.6,44.0,30.35,NNW,337,2.1,7.2,99,0.00,,,0.00,Rainwise IP-100,2013-05-04 09:10:00,
2013-05-04 05:15:00,43.5,44.0,30.36,NNW,337,2.1,6.3,99,0.00,,,0.00,Rainwise IP-100,2013-05-04 09:15:00,
2013-05-04 05:20:00,43.4,43.0,30.36,NNW,337,3.0,5.6,99,0.00,,,0.00,Rainwise IP-100,2013-05-04 09:20:00,
2013-05-04 05:25:00,43.2,43.0,30.36,NE,45,1.6,4.7,99,0.00,,,0.00,Rainwise IP-100,2013-05-04 09:25:00,
2013-05-04 05:30:00,43.2,43.0,30.36,NE,45,1.2,5.4,99,0.00,,,0.00,Rainwise IP-100,2013-05-04 09:30:00,
2013-05-04 05:35:00,43.3,43.0,30.36,NE,45,4.7,5.4,99,0.00,,,0.00,Rainwise IP-100,2013-05-04 09:35:00,
2013-05-04 05:40:00,43.3,43.0,30.36,NE,45,1.4,5.4,99,0.00,,,0.00,Rainwise IP-100,2013-05-04 09:40:00,
2013-05-04 05:45:00,43.3,43.0,30.36,NE,45,0.0,4.9,99,0.00,,,0.00,Rainwise IP-100,2013-05-04 09:45:00,
2013-05-04 05:50:00,43.2,43.0,30.36,NE,45,0.0,3.5,99,0.00,,,0.00,Rainwise IP-100,2013-05-04 09:50:00,
2013-05-04 05:55:00,43.2,43.0,30.36,NE,45,0.0,5.4,99,0.00,,,0.00,Rainwise IP-100,2013-05-04 09:55:00,
2013-05-04 06:00:00,43.3,43.0,30.36,NE,45,1.2,4.2,99,0.00,,,0.00,Rainwise IP-100,2013-05-04 10:00:00,
2013-05-04 06:05:00,43.4,43.0,30.36,NE,45,2.3,4.4,99,0.00,,,0.00,Rainwise IP-100,2013-05-04 10:05:00,
2013-05-04 06:10:00,43.6,44.0,30.36,ENE,67,2.1,4.4,99,0.00,,,0.00,Rainwise IP-100,2013-05-04 10:10:00,
2013-05-04 06:15:00,43.7,44.0,30.36,NE,45,2.3,4.0,99,0.00,,,0.00,Rainwise IP-100,2013-05-04 10:15:00,
2013-05-04 06:20:00,43.7,44.0,30.36,ENE,67,4.0,5.4,99,0.00,,,0.00,Rainwise IP-100,2013-05-04 10:20:00,
2013-05-04 06:25:00,43.9,44.0,30.36,North,360,0.0,4.9,99,0.00,,,0.00,Rainwise IP-100,2013-05-04 10:25:00,
2013-05-04 06:30:00,44.2,44.0,30.37,NE,45,0.0,4.4,99,0.00,,,0.00,Rainwise IP-100,2013-05-04 10:30:00,
2013-05-04 06:35:00,44.4,44.0,30.37,ENE,67,0.0,4.4,99,0.00,,,0.00,Rainwise IP-100,2013-05-04 10:35:00,
2013-05-04 06:40:00,44.7,44.0,30.37,ENE,67,2.1,4.7,98,0.00,,,0.00,Rainwise IP-100,2013-05-04 10:40:00,
2013-05-04 06:45:00,45.1,44.0,30.37,North,360,0.0,4.2,98,0.00,,,0.00,Rainwise IP-100,2013-05-04 10:45:00,
2013-05-04 06:50:00,45.3,44.0,30.37,East,90,2.8,6.1,98,0.00,,,0.00,Rainwise IP-100,2013-05-04 10:50:00,
2013-05-04 06:55:00,45.6,45.0,30.37,East,90,3.5,4.7,97,0.00,,,0.00,Rainwise IP-100,2013-05-04 10:55:00,
2013-05-04 07:00:00,46.0,45.0,30.37,NE,45,0.0,7.0,96,0.00,,,0.00,Rainwise IP-100,2013-05-04 11:00:00,
2013-05-04 07:05:00,46.3,44.0,30.36,ENE,67,5.6,6.8,95,0.00,,,0.00,Rainwise IP-100,2013-05-04 11:05:00,
2013-05-04 07:10:00,46.6,45.0,30.36,ENE,67,3.5,7.2,94,0.00,,,0.00,Rainwise IP-100,2013-05-04 11:10:00,
2013-05-04 07:15:00,47.0,45.0,30.37,ENE,67,5.8,5.8,93,0.00,,,0.00,Rainwise IP-100,2013-05-04 11:15:00,
2013-05-04 07:20:00,47.3,45.0,30.37,East,90,2.8,8.2,92,0.00,,,0.00,Rainwise IP-100,2013-05-04 11:20:00,
2013-05-04 07:25:00,47.7,45.0,30.36,ESE,112,4.2,6.8,90,0.00,,,0.00,Rainwise IP-100,2013-05-04 11:25:00,
2013-05-04 07:30:00,48.2,45.0,30.37,ENE,67,2.3,5.8,89,0.00,,,0.00,Rainwise IP-100,2013-05-04 11:30:00,
2013-05-04 07:35:00,48.3,45.0,30.37,NNE,22,2.3,8.6,87,0.00,,,0.00,Rainwise IP-100,2013-05-04 11:35:00,
2013-05-04 07:40:00,48.3,44.0,30.37,East,90,6.8,8.2,85,0.00,,,0.00,Rainwise IP-100,2013-05-04 11:40:00,
2013-05-04 07:45:00,48.6,44.0,30.37,East,90,4.9,8.9,84,0.00,,,0.00,Rainwise IP-100,2013-05-04 11:45:00,
2013-05-04 07:50:00,48.8,44.0,30.37,ENE,67,7.2,9.1,83,0.00,,,0.00,Rainwise IP-100,2013-05-04 11:50:00,
2013-05-04 07:55:00,49.0,44.0,30.37,East,90,1.6,8.6,82,0.00,,,0.00,Rainwise IP-100,2013-05-04 11:55:00,
2013-05-04 08:00:00,49.6,44.0,30.37,East,90,5.6,9.1,81,0.00,,,0.00,Rainwise IP-100,2013-05-04 12:00:00,
2013-05-04 08:05:00,49.8,44.0,30.37,East,90,6.5,9.6,80,0.00,,,0.00,Rainwise IP-100,2013-05-04 12:05:00,
2013-05-04 08:10:00,49.7,43.0,30.37,ENE,67,7.2,10.0,79,0.00,,,0.00,Rainwise IP-100,2013-05-04 12:10:00,
2013-05-04 08:15:00,49.9,43.0,30.37,ENE,67,4.0,8.6,78,0.00,,,0.00,Rainwise IP-100,2013-05-04 12:15:00,
2013-05-04 08:20:00,50.6,43.0,30.37,ENE,67,3.7,8.2,77,0.00,,,0.00,Rainwise IP-100,2013-05-04 12:20:00,
2013-05-04 08:25:00,51.0,44.0,30.37,ENE,67,6.5,12.4,75,0.00,,,0.00,Rainwise IP-100,2013-05-04 12:25:00,
2013-05-04 08:30:00,51.1,43.0,30.37,ENE,67,6.3,9.1,74,0.00,,,0.00,Rainwise IP-100,2013-05-04 12:30:00,
2013-05-04 08:36:00,51.4,42.0,30.38,NNE,22,3.7,9.6,72,0.00,,,0.00,Rainwise IP-100,2013-05-04 12:36:00,
2013-05-04 08:41:00,51.8,43.0,30.38,NNE,22,3.0,9.6,71,0.00,,,0.00,Rainwise IP-100,2013-05-04 12:41:00,
2013-05-04 08:46:00,52.2,42.0,30.37,NE,45,5.6,6.5,70,0.00,,,0.00,Rainwise IP-100,2013-05-04 12:46:00,
2013-05-04 08:51:00,52.5,43.0,30.37,East,90,4.7,12.6,69,0.00,,,0.00,Rainwise IP-100,2013-05-04 12:51:00,
2013-05-04 08:56:00,52.1,42.0,30.36,East,90,10.0,15.6,68,0.00,,,0.00,Rainwise IP-100,2013-05-04 12:56:00,
2013-05-04 09:01:00,51.6,41.0,30.37,ENE,67,5.6,13.8,67,0.00,,,0.00,Rainwise IP-100,2013-05-04 13:01:00,
2013-05-04 09:06:00,51.8,42.0,30.37,NNW,337,0.0,8.2,68,0.00,,,0.00,Rainwise IP-100,2013-05-04 13:06:00,
2013-05-04 09:11:00,52.4,41.0,30.37,ENE,67,4.4,16.1,67,0.00,,,0.00,Rainwise IP-100,2013-05-04 13:11:00,
2013-05-04 09:16:00,52.6,41.0,30.37,ENE,67,5.8,14.7,66,0.00,,,0.00,Rainwise IP-100,2013-05-04 13:16:00,
2013-05-04 09:21:00,52.5,41.0,30.37,East,90,3.5,9.8,65,0.00,,,0.00,Rainwise IP-100,2013-05-04 13:21:00,
2013-05-04 09:26:00,52.5,41.0,30.38,ENE,67,5.1,11.2,65,0.00,,,0.00,Rainwise IP-100,2013-05-04 13:26:00,
2013-05-04 09:31:00,52.6,41.0,30.37,ENE,67,5.8,14.7,65,0.00,,,0.00,Rainwise IP-100,2013-05-04 13:31:00,
2013-05-04 09:36:00,52.6,41.0,30.37,ENE,67,9.1,12.8,64,0.00,,,0.00,Rainwise IP-100,2013-05-04 13:36:00,
2013-05-04 09:41:00,52.3,40.0,30.38,ENE,67,15.4,15.4,64,0.00,,,0.00,Rainwise IP-100,2013-05-04 13:41:00,
2013-05-04 09:46:00,52.1,40.0,30.38,ENE,67,6.3,15.4,64,0.00,,,0.00,Rainwise IP-100,2013-05-04 13:46:00,
2013-05-04 09:51:00,51.9,40.0,30.38,ENE,67,7.7,15.6,64,0.00,,,0.00,Rainwise IP-100,2013-05-04 13:51:00,
2013-05-04 09:56:00,51.8,40.0,30.38,ENE,67,7.7,11.4,64,0.00,,,0.00,Rainwise IP-100,2013-05-04 13:56:00,
2013-05-04 10:01:00,51.9,40.0,30.38,ENE,67,7.2,14.2,63,0.00,,,0.00,Rainwise IP-100,2013-05-04 14:01:00,
2013-05-04 10:06:00,51.9,40.0,30.37,ENE,67,8.4,14.7,63,0.00,,,0.00,Rainwise IP-100,2013-05-04 14:06:00,
2013-05-04 10:11:00,51.9,40.0,30.38,ENE,67,12.1,14.7,64,0.00,,,0.00,Rainwise IP-100,2013-05-04 14:11:00,
2013-05-04 10:16:00,51.7,40.0,30.38,ENE,67,4.7,14.7,63,0.00,,,0.00,Rainwise IP-100,2013-05-04 14:16:00,
2013-05-04 10:21:00,51.9,40.0,30.38,ENE,67,7.9,14.5,63,0.00,,,0.00,Rainwise IP-100,2013-05-04 14:21:00,
2013-05-04 10:26:00,52.0,40.0,30.37,East,90,9.3,12.8,63,0.00,,,0.00,Rainwise IP-100,2013-05-04 14:26:00,
2013-05-04 10:31:00,51.8,40.0,30.38,NE,45,3.3,15.2,64,0.00,,,0.00,Rainwise IP-100,2013-05-04 14:31:00,
2013-05-04 10:36:00,51.8,40.0,30.38,ENE,67,8.9,13.3,64,0.00,,,0.00,Rainwise IP-100,2013-05-04 14:36:00,
2013-05-04 10:41:00,51.8,40.0,30.38,ENE,67,10.3,14.5,63,0.00,,,0.00,Rainwise IP-100,2013-05-04 14:41:00,
2013-05-04 10:46:00,51.8,40.0,30.38,ENE,67,11.4,19.6,63,0.00,,,0.00,Rainwise IP-100,2013-05-04 14:46:00,
2013-05-04 10:51:00,51.7,40.0,30.38,East,90,9.3,15.2,63,0.00,,,0.00,Rainwise IP-100,2013-05-04 14:51:00,
2013-05-04 10:56:00,51.6,40.0,30.39,ENE,67,8.4,14.5,63,0.00,,,0.00,Rainwise IP-100,2013-05-04 14:56:00,
2013-05-04 11:01:00,51.6,40.0,30.38,ENE,67,6.1,12.6,63,0.00,,,0.00,Rainwise IP-100,2013-05-04 15:01:00,
2013-05-04 11:06:00,51.8,40.0,30.39,East,90,7.0,14.7,63,0.00,,,0.00,Rainwise IP-100,2013-05-04 15:06:00,
2013-05-04 11:11:00,51.7,39.0,30.39,East,90,12.1,13.8,62,0.00,,,0.00,Rainwise IP-100,2013-05-04 15:11:00,
2013-05-04 11:16:00,51.8,39.0,30.39,ENE,67,9.8,14.7,62,0.00,,,0.00,Rainwise IP-100,2013-05-04 15:16:00,
2013-05-04 11:21:00,51.8,39.0,30.39,East,90,10.3,15.2,62,0.00,,,0.00,Rainwise IP-100,2013-05-04 15:21:00,
2013-05-04 11:26:00,51.5,39.0,30.39,NW,315,4.0,16.3,62,0.00,,,0.00,Rainwise IP-100,2013-05-04 15:26:00,
2013-05-04 11:31:00,51.6,39.0,30.38,NE,45,10.5,14.5,62,0.00,,,0.00,Rainwise IP-100,2013-05-04 15:31:00,
2013-05-04 11:36:00,51.8,40.0,30.38,ENE,67,8.2,14.7,63,0.00,,,0.00,Rainwise IP-100,2013-05-04 15:36:00,
2013-05-04 11:41:00,51.9,40.0,30.39,East,90,5.8,12.1,63,0.00,,,0.00,Rainwise IP-100,2013-05-04 15:41:00,
2013-05-04 11:46:00,52.0,40.0,30.38,North,360,7.0,14.2,63,0.00,,,0.00,Rainwise IP-100,2013-05-04 15:46:00,
2013-05-04 11:51:00,51.9,40.0,30.37,East,90,13.3,15.6,63,0.00,,,0.00,Rainwise IP-100,2013-05-04 15:51:00,
2013-05-04 11:56:00,52.0,40.0,30.38,ENE,67,9.1,13.5,63,0.00,,,0.00,Rainwise IP-100,2013-05-04 15:56:00,
2013-05-04 12:01:00,52.1,40.0,30.38,NNE,22,4.7,10.7,64,0.00,,,0.00,Rainwise IP-100,2013-05-04 16:01:00,
2013-05-04 12:06:00,52.4,40.0,30.38,ENE,67,4.7,11.7,64,0.00,,,0.00,Rainwise IP-100,2013-05-04 16:06:00,
2013-05-04 12:11:00,52.4,40.0,30.39,East,90,8.4,18.7,63,0.00,,,0.00,Rainwise IP-100,2013-05-04 16:11:00,
2013-05-04 12:16:00,52.0,40.0,30.39,NNE,22,6.1,15.4,63,0.00,,,0.00,Rainwise IP-100,2013-05-04 16:16:00,
2013-05-04 12:21:00,51.8,40.0,30.38,ENE,67,6.8,14.9,63,0.00,,,0.00,Rainwise IP-100,2013-05-04 16:21:00,
2013-05-04 12:26:00,51.6,40.0,30.38,ENE,67,12.4,18.7,64,0.00,,,0.00,Rainwise IP-100,2013-05-04 16:26:00,
2013-05-04 12:31:00,51.5,40.0,30.38,NNE,22,5.6,16.1,64,0.00,,,0.00,Rainwise IP-100,2013-05-04 16:31:00,
2013-05-04 12:36:00,51.6,40.0,30.38,ENE,67,8.2,15.6,64,0.00,,,0.00,Rainwise IP-100,2013-05-04 16:36:00,
2013-05-04 12:41:00,51.9,40.0,30.38,NE,45,5.1,17.0,63,0.00,,,0.00,Rainwise IP-100,2013-05-04 16:41:00,
2013-05-04 12:46:00,52.0,40.0,30.38,East,90,10.7,14.7,63,0.00,,,0.00,Rainwise IP-100,2013-05-04 16:46:00,
2013-05-04 12:51:00,51.8,40.0,30.38,East,90,3.7,14.5,63,0.00,,,0.00,Rainwise IP-100,2013-05-04 16:51:00,
2013-05-04 12:56:00,51.9,40.0,30.38,ENE,67,10.3,13.8,64,0.00,,,0.00,Rainwise IP-100,2013-05-04 16:56:00,
2013-05-04 13:01:00,52.2,40.0,30.38,NNW,337,8.4,18.4,63,0.00,,,0.00,Rainwise IP-100,2013-05-04 17:01:00,
2013-05-04 13:06:00,52.0,39.0,30.38,NNW,337,4.0,18.0,62,0.00,,,0.00,Rainwise IP-100,2013-05-04 17:06:00,
2013-05-04 13:11:00,51.7,39.0,30.38,ENE,67,3.7,18.9,62,0.00,,,0.00,Rainwise IP-100,2013-05-04 17:11:00,
2013-05-04 13:16:00,51.7,39.0,30.38,NNE,22,12.1,18.2,62,0.00,,,0.00,Rainwise IP-100,2013-05-04 17:16:00,
2013-05-04 13:21:00,51.6,39.0,30.38,ENE,67,11.4,20.1,62,0.00,,,0.00,Rainwise IP-100,2013-05-04 17:21:00,
2013-05-04 13:26:00,51.6,39.0,30.37,East,90,5.8,14.5,62,0.00,,,0.00,Rainwise IP-100,2013-05-04 17:26:00,
2013-05-04 13:31:00,52.2,39.0,30.37,ENE,67,7.2,13.3,62,0.00,,,0.00,Rainwise IP-100,2013-05-04 17:31:00,
2013-05-04 13:36:00,52.5,39.0,30.37,NNW,337,9.6,17.0,61,0.00,,,0.00,Rainwise IP-100,2013-05-04 17:36:00,
2013-05-04 13:41:00,52.3,39.0,30.37,East,90,4.7,16.1,61,0.00,,,0.00,Rainwise IP-100,2013-05-04 17:41:00,
2013-05-04 13:46:00,52.3,39.0,30.36,ENE,67,6.5,14.9,61,0.00,,,0.00,Rainwise IP-100,2013-05-04 17:46:00,
2013-05-04 13:51:00,52.3,39.0,30.37,NNE,22,3.3,16.3,61,0.00,,,0.00,Rainwise IP-100,2013-05-04 17:51:00,
2013-05-04 13:56:00,52.2,38.0,30.37,ENE,67,7.0,13.8,60,0.00,,,0.00,Rainwise IP-100,2013-05-04 17:56:00,
2013-05-04 14:01:00,52.6,39.0,30.37,East,90,5.1,11.7,60,0.00,,,0.00,Rainwise IP-100,2013-05-04 18:01:00,
2013-05-04 14:06:00,52.7,38.0,30.37,ENE,67,8.2,16.3,58,0.00,,,0.00,Rainwise IP-100,2013-05-04 18:06:00,
2013-05-04 14:11:00,52.2,38.0,30.37,East,90,6.5,14.9,58,0.00,,,0.00,Rainwise IP-100,2013-05-04 18:11:00,
2013-05-04 14:16:00,52.1,38.0,30.37,ENE,67,8.6,12.4,58,0.00,,,0.00,Rainwise IP-100,2013-05-04 18:16:00,
2013-05-04 14:21:00,52.6,39.0,30.37,NNE,22,7.0,14.9,59,0.00,,,0.00,Rainwise IP-100,2013-05-04 18:21:00,
2013-05-04 14:26:00,52.7,39.0,30.37,ENE,67,9.8,14.9,59,0.00,,,0.00,Rainwise IP-100,2013-05-04 18:26:00,
2013-05-04 14:31:00,52.2,38.0,30.36,NNE,22,6.3,11.9,59,0.00,,,0.00,Rainwise IP-100,2013-05-04 18:31:00,
2013-05-04 14:36:00,52.2,38.0,30.37,ENE,67,9.8,11.9,59,0.00,,,0.00,Rainwise IP-100,2013-05-04 18:36:00,
2013-05-04 14:41:00,52.1,38.0,30.37,East,90,4.4,15.6,59,0.00,,,0.00,Rainwise IP-100,2013-05-04 18:41:00,
2013-05-04 14:46:00,51.9,38.0,30.37,ENE,67,4.7,14.5,58,0.00,,,0.00,Rainwise IP-100,2013-05-04 18:46:00,
2013-05-04 14:51:00,52.1,38.0,30.36,NNE,22,7.0,14.9,59,0.00,,,0.00,Rainwise IP-100,2013-05-04 18:51:00,
2013-05-04 14:56:00,51.8,38.0,30.37,ENE,67,8.2,13.8,59,0.00,,,0.00,Rainwise IP-100,2013-05-04 18:56:00,
2013-05-04 15:01:00,51.4,37.0,30.36,ENE,67,4.0,12.6,59,0.00,,,0.00,Rainwise IP-100,2013-05-04 19:01:00,
2013-05-04 15:06:00,51.6,38.0,30.36,ENE,67,8.9,12.6,59,0.00,,,0.00,Rainwise IP-100,2013-05-04 19:06:00,
2013-05-04 15:11:00,51.6,38.0,30.36,ENE,67,10.0,17.3,60,0.00,,,0.00,Rainwise IP-100,2013-05-04 19:11:00,
2013-05-04 15:16:00,51.5,38.0,30.36,NNE,22,8.9,13.5,60,0.00,,,0.00,Rainwise IP-100,2013-05-04 19:16:00,
2013-05-04 15:21:00,51.6,38.0,30.36,ENE,67,7.2,11.9,59,0.00,,,0.00,Rainwise IP-100,2013-05-04 19:21:00,
2013-05-04 15:26:00,51.6,38.0,30.36,ENE,67,7.0,14.7,59,0.00,,,0.00,Rainwise IP-100,2013-05-04 19:26:00,
2013-05-04 15:31:00,51.4,37.0,30.36,NNW,337,8.9,13.8,59,0.00,,,0.00,Rainwise IP-100,2013-05-04 19:31:00,
2013-05-04 15:36:00,51.6,38.0,30.36,ENE,67,7.7,14.0,59,0.00,,,0.00,Rainwise IP-100,2013-05-04 19:36:00,
2013-05-04 15:41:00,51.5,38.0,30.35,NNW,337,4.0,16.3,59,0.00,,,0.00,Rainwise IP-100,2013-05-04 19:41:00,
2013-05-04 15:46:00,51.4,37.0,30.35,East,90,6.8,17.5,59,0.00,,,0.00,Rainwise IP-100,2013-05-04 19:46:00,
2013-05-04 15:51:00,51.5,38.0,30.35,ENE,67,7.7,14.0,59,0.00,,,0.00,Rainwise IP-100,2013-05-04 19:51:00,
2013-05-04 15:56:00,51.4,37.0,30.35,ESE,112,1.6,11.4,59,0.00,,,0.00,Rainwise IP-100,2013-05-04 19:56:00,
2013-05-04 16:01:00,51.6,38.0,30.35,ENE,67,7.7,11.2,60,0.00,,,0.00,Rainwise IP-100,2013-05-04 20:01:00,
2013-05-04 16:06:00,51.6,38.0,30.35,NE,45,4.0,12.4,59,0.00,,,0.00,Rainwise IP-100,2013-05-04 20:06:00,
2013-05-04 16:11:00,51.2,38.0,30.35,WNW,292,5.6,10.7,60,0.00,,,0.00,Rainwise IP-100,2013-05-04 20:11:00,
2013-05-04 16:16:00,51.4,38.0,30.35,ENE,67,4.0,11.7,61,0.00,,,0.00,Rainwise IP-100,2013-05-04 20:16:00,
2013-05-04 16:21:00,51.6,38.0,30.35,NNW,337,3.5,13.1,60,0.00,,,0.00,Rainwise IP-100,2013-05-04 20:21:00,
2013-05-04 16:26:00,51.6,38.0,30.34,ENE,67,11.2,14.7,60,0.00,,,0.00,Rainwise IP-100,2013-05-04 20:26:00,
2013-05-04 16:31:00,51.3,38.0,30.35,ENE,67,9.3,14.7,61,0.00,,,0.00,Rainwise IP-100,2013-05-04 20:31:00,
2013-05-04 16:36:00,50.7,38.0,30.35,WNW,292,3.7,14.2,62,0.00,,,0.00,Rainwise IP-100,2013-05-04 20:36:00,
2013-05-04 16:41:00,51.0,39.0,30.35,ESE,112,3.0,12.4,62,0.00,,,0.00,Rainwise IP-100,2013-05-04 20:41:00,
2013-05-04 16:46:00,51.1,39.0,30.35,East,90,8.2,17.0,62,0.00,,,0.00,Rainwise IP-100,2013-05-04 20:46:00,
2013-05-04 16:51:00,50.7,38.0,30.35,ENE,67,10.5,12.8,62,0.00,,,0.00,Rainwise IP-100,2013-05-04 20:51:00,
2013-05-04 16:56:00,50.4,38.0,30.35,East,90,3.3,14.9,63,0.00,,,0.00,Rainwise IP-100,2013-05-04 20:56:00,
2013-05-04 17:01:00,50.6,38.0,30.35,NNE,22,3.7,12.1,63,0.00,,,0.00,Rainwise IP-100,2013-05-04 21:01:00,
2013-05-04 17:06:00,50.9,39.0,30.35,ENE,67,6.8,11.2,63,0.00,,,0.00,Rainwise IP-100,2013-05-04 21:06:00,
2013-05-04 17:11:00,50.7,38.0,30.35,ENE,67,6.5,12.8,63,0.00,,,0.00,Rainwise IP-100,2013-05-04 21:11:00,
2013-05-04 17:16:00,50.4,39.0,30.36,NNE,22,3.3,11.4,64,0.00,,,0.00,Rainwise IP-100,2013-05-04 21:16:00,
2013-05-04 17:21:00,50.5,39.0,30.35,East,90,4.7,13.1,64,0.00,,,0.00,Rainwise IP-100,2013-05-04 21:21:00,
2013-05-04 17:26:00,50.5,39.0,30.36,ENE,67,5.1,12.8,64,0.00,,,0.00,Rainwise IP-100,2013-05-04 21:26:00,
2013-05-04 17:31:00,50.2,38.0,30.35,NNE,22,7.0,11.2,65,0.00,,,0.00,Rainwise IP-100,2013-05-04 21:31:00,
2013-05-04 17:36:00,49.9,39.0,30.35,ENE,67,9.3,16.1,66,0.00,,,0.00,Rainwise IP-100,2013-05-04 21:36:00,
2013-05-04 17:41:00,49.7,39.0,30.36,NNE,22,4.0,11.9,67,0.00,,,0.00,Rainwise IP-100,2013-05-04 21:41:00,
2013-05-04 17:46:00,49.6,39.0,30.35,East,90,4.4,10.3,68,0.00,,,0.00,Rainwise IP-100,2013-05-04 21:46:00,
2013-05-04 17:51:00,49.4,39.0,30.35,ENE,67,6.1,10.0,68,0.00,,,0.00,Rainwise IP-100,2013-05-04 21:51:00,
2013-05-04 17:56:00,49.5,40.0,30.35,NNE,22,6.5,11.0,69,0.00,,,0.00,Rainwise IP-100,2013-05-04 21:56:00,
2013-05-04 18:01:00,49.4,39.0,30.35,NNE,22,3.5,12.4,69,0.00,,,0.00,Rainwise IP-100,2013-05-04 22:01:00,
2013-05-04 18:06:00,49.2,40.0,30.35,NNE,22,1.6,13.3,70,0.00,,,0.00,Rainwise IP-100,2013-05-04 22:06:00,
2013-05-04 18:11:00,49.4,40.0,30.35,East,90,0.0,10.0,70,0.00,,,0.00,Rainwise IP-100,2013-05-04 22:11:00,
2013-05-04 18:16:00,49.4,40.0,30.35,ENE,67,6.3,11.2,71,0.00,,,0.00,Rainwise IP-100,2013-05-04 22:16:00,
2013-05-04 18:21:00,49.2,40.0,30.35,ENE,67,4.7,9.3,71,0.00,,,0.00,Rainwise IP-100,2013-05-04 22:21:00,
2013-05-04 18:26:00,49.1,40.0,30.35,NNE,22,5.4,9.3,71,0.00,,,0.00,Rainwise IP-100,2013-05-04 22:26:00,
2013-05-04 18:31:00,49.1,40.0,30.35,North,360,10.7,11.9,72,0.00,,,0.00,Rainwise IP-100,2013-05-04 22:31:00,
2013-05-04 18:36:00,48.9,40.0,30.35,NE,45,3.0,10.7,72,0.00,,,0.00,Rainwise IP-100,2013-05-04 22:36:00,
2013-05-04 18:41:00,48.6,41.0,30.35,East,90,6.5,11.7,73,0.00,,,0.00,Rainwise IP-100,2013-05-04 22:41:00,
2013-05-04 18:46:00,48.5,41.0,30.35,North,360,8.4,13.3,73,0.00,,,0.00,Rainwise IP-100,2013-05-04 22:46:00,
2013-05-04 18:51:00,48.6,41.0,30.35,ENE,67,2.6,8.4,73,0.00,,,0.00,Rainwise IP-100,2013-05-04 22:51:00,
2013-05-04 18:56:00,48.6,41.0,30.35,NNE,22,6.8,7.7,73,0.00,,,0.00,Rainwise IP-100,2013-05-04 22:56:00,
2013-05-04 19:01:00,48.3,40.0,30.35,East,90,3.5,8.4,74,0.00,,,0.00,Rainwise IP-100,2013-05-04 23:01:00,
2013-05-04 19:06:00,47.8,40.0,30.34,ENE,67,4.0,10.0,74,0.00,,,0.00,Rainwise IP-100,2013-05-04 23:06:00,
2013-05-04 19:11:00,47.4,40.0,30.35,NNE,22,1.6,10.0,75,0.00,,,0.00,Rainwise IP-100,2013-05-04 23:11:00,
2013-05-04 19:16:00,47.2,39.0,30.34,North,360,6.3,9.3,75,0.00,,,0.00,Rainwise IP-100,2013-05-04 23:16:00,
2013-05-04 19:21:00,47.0,39.0,30.34,North,360,5.1,14.2,76,0.00,,,0.00,Rainwise IP-100,2013-05-04 23:21:00,
2013-05-04 19:26:00,46.7,40.0,30.34,ENE,67,5.1,7.2,77,0.00,,,0.00,Rainwise IP-100,2013-05-04 23:26:00,
2013-05-04 19:31:00,46.4,39.0,30.34,NE,45,3.7,7.7,77,0.00,,,0.00,Rainwise IP-100,2013-05-04 23:31:00,
2013-05-04 19:36:00,46.2,39.0,30.35,NNE,22,5.1,9.3,78,0.00,,,0.00,Rainwise IP-100,2013-05-04 23:36:00,
2013-05-04 19:41:00,46.0,39.0,30.35,NE,45,1.2,5.8,79,0.00,,,0.00,Rainwise IP-100,2013-05-04 23:41:00,
2013-05-04 19:46:00,45.7,39.0,30.35,NNW,337,3.7,7.0,79,0.00,,,0.00,Rainwise IP-100,2013-05-04 23:46:00,
2013-05-04 19:51:00,45.5,40.0,30.35,NE,45,4.9,10.0,80,0.00,,,0.00,Rainwise IP-100,2013-05-04 23:51:00,
2013-05-04 19:56:00,45.4,39.0,30.34,NNE,22,3.5,8.9,81,0.00,,,0.00,Rainwise IP-100,2013-05-04 23:56:00,
2013-05-04 20:01:00,45.2,39.0,30.35,NNE,22,8.6,8.6,81,0.00,,,0.00,Rainwise IP-100,2013-05-05 00:01:00,
2013-05-04 20:06:00,45.1,39.0,30.34,ENE,67,1.9,8.6,81,0.00,,,0.00,Rainwise IP-100,2013-05-05 00:06:00,
2013-05-04 20:11:00,45.0,40.0,30.35,ENE,67,4.7,6.8,82,0.00,,,0.00,Rainwise IP-100,2013-05-05 00:11:00,
2013-05-04 20:16:00,44.9,40.0,30.35,NE,45,3.5,6.1,82,0.00,,,0.00,Rainwise IP-100,2013-05-05 00:16:00,
2013-05-04 20:21:00,44.7,40.0,30.35,ESE,112,0.0,8.6,82,0.00,,,0.00,Rainwise IP-100,2013-05-05 00:21:00,
2013-05-04 20:26:00,44.6,40.0,30.35,East,90,4.4,6.5,83,0.00,,,0.00,Rainwise IP-100,2013-05-05 00:26:00,
2013-05-04 20:31:00,44.6,40.0,30.35,ENE,67,3.5,6.3,83,0.00,,,0.00,Rainwise IP-100,2013-05-05 00:31:00,
2013-05-04 20:36:00,44.5,40.0,30.35,ENE,67,3.7,6.5,84,0.00,,,0.00,Rainwise IP-100,2013-05-05 00:36:00,
2013-05-04 20:41:00,44.4,39.0,30.36,ENE,67,4.4,7.9,84,0.00,,,0.00,Rainwise IP-100,2013-05-05 00:41:00,
2013-05-04 20:46:00,44.4,39.0,30.35,ENE,67,2.3,6.5,84,0.00,,,0.00,Rainwise IP-100,2013-05-05 00:46:00,
2013-05-04 20:51:00,44.4,40.0,30.36,NE,45,2.8,6.1,85,0.00,,,0.00,Rainwise IP-100,2013-05-05 00:51:00,
2013-05-04 20:56:00,44.3,40.0,30.35,North,360,1.6,6.3,85,0.00,,,0.00,Rainwise IP-100,2013-05-05 00:56:00,
2013-05-04 21:01:00,44.2,40.0,30.36,NE,45,3.3,6.8,85,0.00,,,0.00,Rainwise IP-100,2013-05-05 01:01:00,
2013-05-04 21:06:00,44.0,40.0,30.36,ENE,67,2.6,5.8,86,0.00,,,0.00,Rainwise IP-100,2013-05-05 01:06:00,
2013-05-04 21:11:00,44.0,40.0,30.36,ENE,67,3.0,5.4,86,0.00,,,0.00,Rainwise IP-100,2013-05-05 01:11:00,
2013-05-04 21:16:00,43.9,40.0,30.36,ENE,67,3.0,6.5,86,0.00,,,0.00,Rainwise IP-100,2013-05-05 01:16:00,
2013-05-04 21:21:00,43.8,40.0,30.36,ENE,67,1.6,4.4,87,0.00,,,0.00,Rainwise IP-100,2013-05-05 01:21:00,
2013-05-04 21:26:00,43.8,40.0,30.36,ENE,67,1.9,5.4,87,0.00,,,0.00,Rainwise IP-100,2013-05-05 01:26:00,
2013-05-04 21:31:00,43.7,40.0,30.36,NE,45,5.1,7.5,87,0.00,,,0.00,Rainwise IP-100,2013-05-05 01:31:00,
2013-05-04 21:36:00,43.7,40.0,30.36,ENE,67,2.6,7.5,87,0.00,,,0.00,Rainwise IP-100,2013-05-05 01:36:00,
2013-05-04 21:41:00,43.7,40.0,30.36,ENE,67,4.4,5.1,87,0.00,,,0.00,Rainwise IP-100,2013-05-05 01:41:00,
2013-05-04 21:46:00,43.7,41.0,30.36,NNE,22,4.9,5.4,88,0.00,,,0.00,Rainwise IP-100,2013-05-05 01:46:00,
2013-05-04 21:51:00,43.7,41.0,30.36,ENE,67,3.0,7.2,88,0.00,,,0.00,Rainwise IP-100,2013-05-05 01:51:00,
2013-05-04 21:56:00,43.7,41.0,30.36,ENE,67,3.7,6.3,88,0.00,,,0.00,Rainwise IP-100,2013-05-05 01:56:00,
2013-05-04 22:01:00,43.6,41.0,30.36,ENE,67,1.2,5.6,88,0.00,,,0.00,Rainwise IP-100,2013-05-05 02:01:00,
2013-05-04 22:06:00,43.5,41.0,30.36,ENE,67,0.0,5.1,88,0.00,,,0.00,Rainwise IP-100,2013-05-05 02:06:00,
2013-05-04 22:11:00,43.4,40.0,30.36,ENE,67,0.0,5.8,88,0.00,,,0.00,Rainwise IP-100,2013-05-05 02:11:00,
2013-05-04 22:16:00,43.3,40.0,30.36,NNE,22,5.1,5.6,88,0.00,,,0.00,Rainwise IP-100,2013-05-05 02:16:00,
2013-05-04 22:21:00,43.3,40.0,30.36,NNE,22,1.2,6.3,89,0.00,,,0.00,Rainwise IP-100,2013-05-05 02:21:00,
2013-05-04 22:26:00,43.2,40.0,30.36,ENE,67,2.3,5.4,89,0.00,,,0.00,Rainwise IP-100,2013-05-05 02:26:00,
2013-05-04 22:31:00,43.2,40.0,30.36,NNE,22,0.0,4.7,89,0.00,,,0.00,Rainwise IP-100,2013-05-05 02:31:00,
2013-05-04 22:36:00,43.2,40.0,30.36,NNW,337,0.0,3.3,90,0.00,,,0.00,Rainwise IP-100,2013-05-05 02:36:00,
2013-05-04 22:41:00,43.0,40.0,30.35,NW,315,0.0,6.1,90,0.00,,,0.00,Rainwise IP-100,2013-05-05 02:41:00,
2013-05-04 22:46:00,42.9,40.0,30.35,NNW,337,1.2,5.6,91,0.00,,,0.00,Rainwise IP-100,2013-05-05 02:46:00,
2013-05-04 22:51:00,42.8,40.0,30.35,NNW,337,1.4,3.0,91,0.00,,,0.00,Rainwise IP-100,2013-05-05 02:51:00,
2013-05-04 22:56:00,42.8,41.0,30.35,NNW,337,0.0,3.0,92,0.00,,,0.00,Rainwise IP-100,2013-05-05 02:56:00,
2013-05-04 23:01:00,42.7,41.0,30.35,NNW,337,0.0,2.6,92,0.00,,,0.00,Rainwise IP-100,2013-05-05 03:01:00,
2013-05-04 23:06:00,42.6,41.0,30.35,NNE,22,0.0,2.8,93,0.00,,,0.00,Rainwise IP-100,2013-05-05 03:06:00,
2013-05-04 23:11:00,42.6,41.0,30.34,ENE,67,0.0,3.5,93,0.00,,,0.00,Rainwise IP-100,2013-05-05 03:11:00,
2013-05-04 23:16:00,42.6,41.0,30.34,ENE,67,1.9,6.1,93,0.00,,,0.00,Rainwise IP-100,2013-05-05 03:16:00,
2013-05-04 23:21:00,42.6,41.0,30.34,ENE,67,0.0,4.4,93,0.00,,,0.00,Rainwise IP-100,2013-05-05 03:21:00,
2013-05-04 23:26:00,42.7,41.0,30.34,NNW,337,0.0,4.0,93,0.00,,,0.00,Rainwise IP-100,2013-05-05 03:26:00,
2013-05-04 23:31:00,42.8,41.0,30.34,NNW,337,2.3,3.5,93,0.00,,,0.00,Rainwise IP-100,2013-05-05 03:31:00,
2013-05-04 23:36:00,42.8,41.0,30.34,NNE,22,3.0,4.7,93,0.00,,,0.00,Rainwise IP-100,2013-05-05 03:36:00,
2013-05-04 23:41:00,42.8,41.0,30.34,ENE,67,3.0,7.9,94,0.00,,,0.00,Rainwise IP-100,2013-05-05 03:41:00,
2013-05-04 23:46:00,42.8,41.0,30.34,ENE,67,5.1,8.4,93,0.00,,,0.00,Rainwise IP-100,2013-05-05 03:46:00,
2013-05-04 23:51:00,42.9,41.0,30.34,ENE,67,1.6,6.3,93,0.00,,,0.00,Rainwise IP-100,2013-05-05 03:51:00,
2013-05-04 23:56:00,43.0,41.0,30.34,ENE,67,3.7,5.8,92,0.00,,,0.00,Rainwise IP-100,2013-05-05 03:56:00,
2013-05-04 23:57:00,43.0,41.0,30.34,NNE,22,3.7,5.8,92,0.00,,,0.00,Rainwise IP-100,2013-05-05 03:57:00,